Regional Weather Roundup
Issued by NWS

Home | Current Version | Previous Version | Graphics & Text | Print | Product List | Glossary On
Versions: 1 2 3 4 5 6 7 8 9 10 11 12 13 14 15 16 17 18 19 20 21 22 23 24 25 26 27 28 29 30 31 32 33 34 35 36 37 38 39 40 41 42 43 44 45 46 47 48 49 50
000
ASUS44 KMEG 272200
RWRTN
TENNESSEE HOURLY STATE WEATHER ROUNDUP
NATIONAL WEATHER SERVICE MEMPHIS TN
400 PM CST MON FEB 27 2017

TNZ002-004-019-021-049-052-054-088>092-272300-
WEST TENNESSEE

CITY           SKY/WX    TMP DP  RH WIND       PRES   REMARKS
MEMPHIS INTL   MOSUNNY   66  50  56 S13       30.10R
NWS MEMPHIS      N/A     68 N/A N/A MISG        N/A
JACKSON        SUNNY     64  48  56 SE6       30.10F
UNION CITY     SUNNY     66  43  42 CALM      30.07S
PARIS          SUNNY     63  45  51 S7        30.11R
$$

TNZ008-025-027-028-033-062-065-066-272300-
NORTH MIDDLE TENNESSEE

CITY           SKY/WX    TMP DP  RH WIND       PRES   REMARKS
NASHVILLE      MOSUNNY   62  41  46 S12       30.16S
CLARKSVILLE    SUNNY     63  42  46 S8        30.11F
SMYRNA         SUNNY     62  45  53 SE10      30.17S
CROSSVILLE     CLOUDY    50  37  61 S10G21    30.20S
$$

TNZ061-075-076-078-094-096-097-272300-
SOUTH MIDDLE TENNESSEE

CITY           SKY/WX    TMP DP  RH WIND       PRES   REMARKS
TULLAHOMA      CLOUDY    54  45  71 S6        30.19R
WINCHESTER     CLOUDY    54  46  76 S8        30.19S
MCMINNVILLE    CLOUDY    55  45  67 S8        30.18S
COLUMBIA       SUNNY     57  50  77 S9        30.14S
SHELBYVILLE    MOSUNNY   57  48  72 S9        30.18S
$$

TNZ017-018-042-046-047-272300-
NORTHEAST TENNESSEE

CITY           SKY/WX    TMP DP  RH WIND       PRES   REMARKS
TRI CITIES     CLOUDY    57  22  25 SE6       30.24S
$$

TNZ012-013-036-069-073-074-272300-
CENTRAL EAST TENNESSEE

CITY           SKY/WX    TMP DP  RH WIND       PRES   REMARKS
KNOXVILLE      CLOUDY    55  37  50 NW7       30.20S
OAK RIDGE      CLOUDY    53  36  52 VRB3      30.22F
GATLINBURG     CLOUDY    52  32  46 NE5       30.20F
$$

TNZ083-085-099-272300-
SOUTHEAST TENNESSEE

CITY           SKY/WX    TMP DP  RH WIND       PRES   REMARKS
CHATTANOOGA    CLOUDY    53  43  68 CALM      30.22F
$$

SKY/WX REPORTED AS FAIR MEANS FEW OR NO CLOUDS BELOW
12 THOUSAND FEET.





USA.gov is the U.S. government's official web portal to all federal, state and local government web resources and services.